Flag for Egypt Weather past 2 weeks in Port Said, Egypt

Now
84 °F

Sunny.


Feels Like: 92 °F
Forecast: 77 / 88 °F
Wind: 14 mph from Northwest

Location: Port Said Airport

Current Time: Jul 31, 2014 at 6:53:39 PM

Latest Report: Jul 31, 2014 at 6:00 PM


Visibility: 10 mi

Pressure: 29.74 "Hg

Humidity: 74%

Dew point: 75 °F

Location of Port SaidLocation

Historic Weather in Port Said — Graph

°F

Port Said temperature yesterday

Maximum temperature yesterday: 84 °F (at 10:00 AM)
Minimum temperature yesterday: 79 °F (at 3:00 AM)
Average temperature yesterday: 82 °F

Past Weeks' High & Low Weather Summary

 TemperatureHumidityPressure
High90 °F (Jul 20, 1:00 PM)89% (Jul 23, 5:00 AM)29.92 "Hg (Jul 23, 5:00 AM)
Low77 °F (Jul 17, 1:00 AM)49% (Jul 20, 1:00 PM)29.71 "Hg (Jul 31, 5:00 PM)
Average81 °F73%29.81 "Hg
* Reported Jul 16 5:00 PM — Jul 31 5:00 PM, Port Said, Weather by CustomWeather, © 2014

Note: Actual official high and low records may vary slightly from our data, if they occured in-between our weather recording intervals... More about our weather records

Advertising

Port Said weather history for previous 24 hours

 ConditionsComfort  
Time TempWeatherWind HumidityBarometerVisibility
5:00 PM
Jul 31
84 °FSunny.14 mph74%29.71 "Hg10 mi
4:00 PM84 °FSunny.12 mph74%29.74 "Hg10 mi
3:00 PM86 °FSunny.8 mph70%29.74 "Hg10 mi
2:00 PM88 °FPassing clouds.9 mph66%29.74 "HgN/A
1:00 PM88 °FPassing clouds.6 mph66%29.77 "HgN/A
12:00 PM88 °FPassing clouds.7 mph59%29.77 "HgN/A
11:00 AM86 °FPassing clouds.7 mph62%29.77 "HgN/A
10:00 AM84 °FScattered clouds.5 mph70%29.77 "HgN/A
9:00 AM82 °FPassing clouds.8 mph74%29.77 "HgN/A
7:00 AM79 °FScattered clouds.9 mph84%29.77 "HgN/A
6:00 AM77 °FScattered clouds.8 mph89%29.77 "HgN/A
5:00 AM79 °FPassing clouds.8 mph84%29.77 "HgN/A
4:00 AM79 °FPassing clouds.7 mph84%29.74 "HgN/A
2:00 AM79 °FPassing clouds.8 mph84%29.74 "HgN/A
1:00 AM79 °FPassing clouds.9 mph84%29.77 "HgN/A
12:00 AM79 °FPassing clouds.12 mph84%29.77 "HgN/A
11:00 PM
Jul 30
81 °FPassing clouds.13 mph84%29.77 "HgN/A
10:00 PM81 °FPassing clouds.13 mph84%29.77 "HgN/A
9:00 PM81 °FPassing clouds.14 mph84%29.77 "HgN/A
8:00 PM81 °FClear.10 mph84%29.77 "Hg10 mi
7:00 PM81 °FPassing clouds.13 mph84%29.77 "HgN/A
6:00 PM82 °FPassing clouds.15 mph79%29.74 "HgN/A
Weather by CustomWeather, © 2014

See weather overviewHow to use our weather pages